Regional Weather Roundup
Issued by NWS

Home | Current Version | Previous Version | Graphics & Text | Print | Product List | Glossary On
Versions: 1 2 3 4 5 6 7 8 9 10 11 12 13 14 15 16 17 18 19 20 21 22 23 24 25 26 27 28 29 30 31 32 33 34 35 36 37 38 39 40 41 42 43 44 45 46 47 48 49 50
000
ASUS45 KCYS 260410
RWRWY

WYOMING REGIONAL WEATHER ROUNDUP
NATIONAL WEATHER SERVICE CHEYENNE WY
1000 PM MDT THU MAY 25 2017

NOTE:  "FAIR" INDICATES FEW OR NO CLOUDS BELOW 12,000 FEET
WITH NO SIGNIFICANT WEATHER AND/OR OBSTRUCTIONS TO VISIBILITY.

WYZ001-260500-
YELLOWSTONE NATIONAL PARK

CITY           SKY/WX    TMP DP  RH WIND       PRES   REMARKS
LK YELLOWSTONE   N/A     32  27  81 CALM      29.95R
W YELLOWSTONE  NOT AVBL

$$
WYZ002>013-054>058-071-098>099-260500-
NORTHERN WYOMING

CITY           SKY/WX    TMP DP  RH WIND       PRES   REMARKS
JACKSON        CLOUDY    48  28  46 N13       29.86R
CODY           MOCLDY    49  28  44 N3        29.91R
GREYBULL       CLOUDY    54  30  40 NW13      29.84R
WORLAND        FAIR      53  33  46 NW7       29.86R
SHERIDAN       FAIR      46  41  82 W5        29.87R
BUFFALO        MOCLDY    48  36  63 N12G24    29.88R
GILLETTE       CLOUDY    44  40  85 NW3       29.86R
HULETT         FAIR      46  36  66 W6        29.86R
NEWCASTLE      FAIR      46  34  61 N12       29.86R

$$
WYZ014>020-022>026-101>103-260500-
CENTRAL WYOMING

CITY           SKY/WX    TMP DP  RH WIND       PRES   REMARKS
BIG PINEY      FAIR      41  26  55 N8        29.88R
PINEDALE       FAIR      37  28  70 NW5       29.89R WCI  34
DUBOIS         NOT AVBL
LANDER         LGT RAIN  48  35  60 SE10      29.90R
RIVERTON       CLOUDY    50  30  46 NE10      29.89R
CASPER         CLOUDY    47  36  65 NE8       29.88R
DOUGLAS        CLOUDY    49  35  58 N12       29.88R

$$
WYZ021-027>030-104>119-260500-
SOUTHERN WYOMING

CITY           SKY/WX    TMP DP  RH WIND       PRES   REMARKS
EVANSTON       FAIR      47  24  40 N8        29.87R
KEMMERER         N/A     41  27  56 N7        29.89R
FORT BRIDGER   FAIR      47  20  33 CALM      29.91R
ROCK SPRINGS   FAIR      48  19  31 W6        29.88R
RAWLINS        FAIR      47  29  49 NE10      29.87R
LARAMIE        CLOUDY    45  34  65 NW9       29.90R
CHEYENNE       MOCLDY    50  38  63 N10       29.87R
TORRINGTON     FAIR      56  35  45 N14       29.80R
PINE BLUFFS    FAIR      48  48 100 CALM      29.83R

$$



USA.gov is the U.S. government's official web portal to all federal, state and local government web resources and services.